• In Belarus
  • List of Countries
  • For 7 days
  • Water Temperature
  • Satellite Maps
  • Weather Map
  • Weather Widgets
  • user-avatar
    Login

    Hourly Weather Jaú

    Today, 21 July, Saturday

    Time Temperature Precipitation Wind Pressure Humidity
    00:00 +38°C° 0 mm 3 mps 746 mmHg 25%
    01:00 +38°C° 0 mm 4 mps 746 mmHg 25%
    02:00 +39°C° 0 mm 5 mps 746 mmHg 24%
    03:00 +39°C° 0 mm 5 mps 745 mmHg 24%
    04:00 +39°C° 0 mm 6 mps 746 mmHg 24%
    05:00 +39°C° 0 mm 6 mps 746 mmHg 25%
    06:00 +39°C° 0 mm 7 mps 746 mmHg 26%
    07:00 +40°C° 0 mm 7 mps 746 mmHg 24%
    08:00 +43°C° 0 mm 8 mps 746 mmHg 23%
    09:00 +44°C° 0 mm 8 mps 746 mmHg 26%
    10:00 +45°C° 0 mm 8 mps 746 mmHg 24%
    11:00 +45°C° 0 mm 9 mps 746 mmHg 23%
    12:00 +47°C° 0 mm 9 mps 746 mmHg 21%
    13:00 +45°C° 0 mm 9 mps 746 mmHg 21%
    14:00 +45°C° 0 mm 9 mps 746 mmHg 21%
    15:00 +45°C° 0 mm 8 mps 746 mmHg 20%
    16:00 +44°C° 0 mm 8 mps 746 mmHg 21%
    17:00 +44°C° 0 mm 7 mps 746 mmHg 22%
    18:00 +42°C° 0 mm 6 mps 746 mmHg 22%
    19:00 +41°C° 0 mm 5 mps 746 mmHg 25%
    20:00 +40°C° 0 mm 4 mps 746 mmHg 27%
    21:00 +39°C° 0 mm 3 mps 747 mmHg 30%
    22:00 +38°C° 0 mm 4 mps 746 mmHg 32%
    23:00 +38°C° 0 mm 4 mps 746 mmHg 33%

    Tomorrow, 22 July, Sunday

    Time Temperature Precipitation Wind Pressure Humidity
    00:00 +38°C° 0 mm 4 mps 746 mmHg 35%
    01:00 +39°C° 0 mm 5 mps 746 mmHg 37%
    02:00 +39°C° 0 mm 6 mps 746 mmHg 39%
    03:00 +39°C° 0 mm 7 mps 746 mmHg 41%
    04:00 +39°C° 0 mm 7 mps 746 mmHg 41%
    05:00 +39°C° 0 mm 8 mps 746 mmHg 41%
    06:00 +39°C° 0 mm 8 mps 747 mmHg 40%
    07:00 +40°C° 0 mm 8 mps 747 mmHg 34%
    08:00 +43°C° 0 mm 9 mps 747 mmHg 27%
    09:00 +45°C° 0 mm 9 mps 747 mmHg 21%
    10:00 +45°C° 0 mm 10 mps 747 mmHg 20%
    11:00 +47°C° 0 mm 10 mps 747 mmHg 18%
    12:00 +48°C° 0 mm 10 mps 747 mmHg 16%
    13:00 +47°C° 0 mm 10 mps 747 mmHg 16%
    14:00 +47°C° 0 mm 10 mps 746 mmHg 16%
    15:00 +47°C° 0 mm 10 mps 746 mmHg 16%
    16:00 +45°C° 0 mm 9 mps 746 mmHg 17%
    17:00 +45°C° 0 mm 9 mps 746 mmHg 18%
    18:00 +44°C° 0 mm 8 mps 746 mmHg 19%
    19:00 +43°C° 0 mm 7 mps 746 mmHg 22%
    20:00 +41°C° 0 mm 7 mps 746 mmHg 25%
    21:00 +41°C° 0 mm 6 mps 746 mmHg 27%
    22:00 +40°C° 0 mm 6 mps 746 mmHg 28%
    23:00 +40°C° 0 mm 6 mps 746 mmHg 29%

    Day after tomorrow, 23 July, Monday

    Time Temperature Precipitation Wind Pressure Humidity
    00:00 +40°C° 0 mm 6 mps 746 mmHg 30%
    01:00 +40°C° 0 mm 7 mps 746 mmHg 33%
    02:00 +39°C° 0 mm 7 mps 746 mmHg 35%
    03:00 +39°C° 0 mm 8 mps 745 mmHg 37%
    04:00 +39°C° 0 mm 8 mps 745 mmHg 37%
    05:00 +39°C° 0 mm 8 mps 745 mmHg 37%
    06:00 +40°C° 0 mm 8 mps 745 mmHg 37%
    07:00 +41°C° 0 mm 8 mps 746 mmHg 31%
    08:00 +44°C° 0 mm 8 mps 746 mmHg 26%
    09:00 +47°C° 0 mm 9 mps 746 mmHg 20%
    10:00 +47°C° 0 mm 9 mps 746 mmHg 19%
    11:00 +48°C° 0 mm 8 mps 746 mmHg 17%
    12:00 +49°C° 0 mm 8 mps 746 mmHg 15%
    13:00 +49°C° 0 mm 9 mps 746 mmHg 15%
    14:00 +48°C° 0 mm 9 mps 746 mmHg 15%
    15:00 +48°C° 0 mm 9 mps 745 mmHg 15%
    16:00 +48°C° 0 mm 9 mps 745 mmHg 16%
    17:00 +47°C° 0 mm 9 mps 745 mmHg 17%
    18:00 +45°C° 0 mm 8 mps 745 mmHg 18%
    19:00 +44°C° 0 mm 8 mps 745 mmHg 20%
    20:00 +43°C° 0 mm 7 mps 746 mmHg 23%
    21:00 +42°C° 0 mm 6 mps 746 mmHg 26%
    22:00 +41°C° 0 mm 6 mps 746 mmHg 27%
    23:00 +41°C° 0 mm 6 mps 746 mmHg 28%

    24 July, Tuesday

    Time Temperature Precipitation Wind Pressure Humidity
    00:00 +40°C° 0 mm 5 mps 745 mmHg 29%
    01:00 +40°C° 0 mm 5 mps 745 mmHg 30%
    02:00 +40°C° 0 mm 5 mps 745 mmHg 30%
    03:00 +40°C° 0 mm 5 mps 745 mmHg 31%
    04:00 +40°C° 0 mm 5 mps 745 mmHg 34%
    05:00 +39°C° 0 mm 5 mps 745 mmHg 37%
    06:00 +39°C° 0 mm 6 mps 746 mmHg 39%
    07:00 +41°C° 0 mm 6 mps 746 mmHg 34%
    08:00 +44°C° 0 mm 6 mps 746 mmHg 29%
    09:00 +45°C° 0 mm 6 mps 747 mmHg 24%
    10:00 +47°C° 0 mm 7 mps 747 mmHg 21%
    11:00 +49°C° 0 mm 7 mps 747 mmHg 18%
    12:00 +50°C° 0 mm 7 mps 747 mmHg 14%
    13:00 +50°C° 0 mm 7 mps 746 mmHg 14%
    14:00 +50°C° 0 mm 7 mps 746 mmHg 14%
    15:00 +50°C° 0 mm 8 mps 746 mmHg 14%
    16:00 +47°C° 0 mm 7 mps 746 mmHg 16%
    17:00 +46°C° 0 mm 7 mps 746 mmHg 19%
    18:00 +45°C° 0 mm 7 mps 746 mmHg 21%
    19:00 +44°C° 0 mm 7 mps 746 mmHg 23%
    20:00 +42°C° 0 mm 6 mps 747 mmHg 25%
    21:00 +41°C° 0 mm 5 mps 747 mmHg 27%
    22:00 +41°C° 0 mm 5 mps 747 mmHg 26%
    23:00 +41°C° 0 mm 4 mps 746 mmHg 25%

    25 July, Wednesday

    Time Temperature Precipitation Wind Pressure Humidity
    00:00 +41°C° 0 mm 4 mps 746 mmHg 25%
    01:00 +41°C° 0 mm 5 mps 746 mmHg 25%
    02:00 +41°C° 0 mm 5 mps 746 mmHg 25%
    03:00 +41°C° 0 mm 5 mps 745 mmHg 25%
    04:00 +40°C° 0 mm 6 mps 746 mmHg 27%
    05:00 +40°C° 0 mm 6 mps 746 mmHg 29%
    06:00 +40°C° 0 mm 6 mps 747 mmHg 31%
    07:00 +41°C° 0 mm 6 mps 747 mmHg 27%
    08:00 +44°C° 0 mm 7 mps 747 mmHg 24%
    09:00 +46°C° 0 mm 7 mps 747 mmHg 20%
    10:00 +47°C° 0 mm 7 mps 747 mmHg 18%
    11:00 +49°C° 0 mm 7 mps 747 mmHg 16%
    12:00 +50°C° 0 mm 7 mps 747 mmHg 15%
    13:00 +50°C° 0 mm 7 mps 746 mmHg 15%
    14:00 +50°C° 0 mm 8 mps 746 mmHg 16%
    15:00 +49°C° 0 mm 8 mps 746 mmHg 16%
    16:00 +47°C° 0 mm 7 mps 746 mmHg 19%
    17:00 +46°C° 0 mm 7 mps 746 mmHg 21%
    18:00 +45°C° 0 mm 6 mps 746 mmHg 24%
    19:00 +43°C° 0 mm 5 mps 746 mmHg 26%
    20:00 +42°C° 0 mm 4 mps 746 mmHg 28%
    21:00 +41°C° 0 mm 4 mps 747 mmHg 30%
    22:00 +41°C° 0 mm 4 mps 746 mmHg 29%
    23:00 +40°C° 0 mm 4 mps 746 mmHg 27%

    26 July, Thursday

    Time Temperature Precipitation Wind Pressure Humidity
    00:00 +40°C° 0 mm 4 mps 746 mmHg 26%
    01:00 +40°C° 0 mm 4 mps 746 mmHg 26%
    02:00 +40°C° 0 mm 5 mps 745 mmHg 26%
    03:00 +40°C° 0 mm 5 mps 745 mmHg 26%
    04:00 +40°C° 0 mm 5 mps 746 mmHg 25%
    05:00 +40°C° 0 mm 5 mps 746 mmHg 24%
    06:00 +40°C° 0 mm 5 mps 747 mmHg 24%
    07:00 +42°C° 0 mm 6 mps 747 mmHg 21%
    08:00 +45°C° 0 mm 6 mps 747 mmHg 18%
    09:00 +47°C° 0 mm 7 mps 747 mmHg 15%
    10:00 +49°C° 0 mm 7 mps 747 mmHg 15%
    11:00 +50°C° 0 mm 7 mps 747 mmHg 14%
    12:00 +50°C° 0 mm 7 mps 746 mmHg 14%
    13:00 +50°C° 0 mm 7 mps 746 mmHg 14%
    14:00 +50°C° 0 mm 7 mps 745 mmHg 15%
    15:00 +50°C° 0 mm 7 mps 745 mmHg 16%
    16:00 +47°C° 0 mm 6 mps 745 mmHg 18%
    17:00 +46°C° 0 mm 5 mps 745 mmHg 21%
    18:00 +44°C° 0 mm 4 mps 745 mmHg 23%
    19:00 +42°C° 0 mm 3 mps 745 mmHg 25%
    20:00 +40°C° 0 mm 2 mps 746 mmHg 27%
    21:00 +39°C° 0 mm 1 mps 746 mmHg 28%
    22:00 +39°C° 0 mm 2 mps 746 mmHg 28%
    23:00 +39°C° 0 mm 2 mps 745 mmHg 28%
    Show more